Theta_e
302 302 302 302 302 302 300 299 297 296 295 294 293 292 292 291 291 291 291 290 290 289 289 288 288 287 287 287 287 289 289 289 290 291 291 292 292 294
302 302 302 302 302 301 300 298 296 296 294 293 292 292 291 290 290 290 290 290 289 288 288 287 287 287 286 286 286 287 287 288 288 289 290 291 292 292
301 300 301 301 301 300 299 297 296 294 293 292 291 291 291 290 290 289 289 288 288 287 287 287 286 286 286 286 285 285 285 286 286 287 288 289 290 290
301 301 300 300 299 299 298 296 294 293 292 291 290 290 290 289 289 288 287 287 287 286 286 286 285 285 285 285 284 284 284 284 284 286 287 287 288 289
300 299 299 299 297 297 296 294 293 292 291 291 290 290 289 288 287 287 287 287 286 285 285 285 284 284 284 284 284 284 283 283 285 285 286 287 288 288
299 299 299 299 297 296 295 294 292 292 291 291 290 289 287 287 286 286 287 286 286 285 284 284 283 283 283 283 283 283 283 283 284 285 286 286 286 286
300 299 297 296 295 295 293 292 292 291 290 290 289 287 286 286 285 285 284 284 285 283 282 283 282 282 282 282 282 282 282 283 284 285 285 285 285 285
299 297 296 296 295 293 292 291 290 290 289 288 287 286 285 285 284 283 283 282 283 282 281 282 282 282 282 282 282 282 282 283 283 283 284 284 284 284
297 296 296 295 293 292 290 290 289 288 288 287 286 285 284 283 283 282 282 282 282 282 281 282 282 282 282 282 282 282 282 282 282 283 283 283 283 283
295 295 294 293 291 290 289 289 288 287 286 286 285 283 283 282 282 282 281 281 282 282 281 281 282 282 282 283 282 282 282 282 282 282 282 283 283 283
293 292 292 290 290 289 288 293 287 286 286 284 283 283 282 282 282 282 282 281 282 282 281 281 282 282 282 283 283 282 282 282 282 282 282 281 282 282
291 290 289 290 288 290 291 287 286 285 284 283 282 282 282 282 282 281 281 281 281 281 281 280 282 281 279 282 282 283 283 282 282 282 282 281 281 281
290 290 289 289 293 291 287 286 284 283 283 283 283 283 282 282 282 282 281 281 281 282 282 281 282 281 279 281 283 283 282 282 282 282 282 281 281 281
290 289 292 294 291 287 285 283 283 283 283 283 283 283 283 282 282 282 282 282 282 283 283 282 282 281 281 281 282 283 282 282 282 282 282 281 281 281
291 295 296 291 287 285 283 283 283 283 283 283 283 283 282 282 282 283 283 283 284 283 283 283 282 282 282 282 282 282 282 282 282 282 282 281 281 281
295 295 291 286 284 283 282 283 283 283 283 283 283 282 282 282 283 283 284 284 284 284 284 283 282 282 282 282 282 282 282 281 282 282 281 281 281 281
295 292 285 284 283 282 282 283 283 283 283 282 282 282 282 283 283 283 284 284 284 284 284 283 282 282 282 282 281 281 281 281 281 281 281 280 282 282
287 285 284 282 282 282 283 283 283 282 282 282 282 282 282 283 283 284 284 284 284 284 283 283 282 281 281 282 281 281 281 281 281 281 281 280 282 282
284 283 282 282 282 282 283 283 282 282 282 282 282 282 283 283 283 284 284 283 283 283 283 283 282 281 280 280 283 283 281 282 281 280 280 280 281 282
282 282 282 281 282 283 283 282 282 282 282 281 282 283 283 283 283 283 283 283 283 283 284 283 283 282 280 280 281 283 283 282 281 281 282 281 282 282
281 281 281 282 283 283 282 282 282 282 282 282 282 283 283 283 283 283 283 283 283 283 283 283 283 283 283 283 283 283 284 284 283 283 283 282 282 282
281 281 282 283 283 282 282 282 282 282 282 282 282 283 283 282 282 282 283 283 283 283 283 283 283 283 283 283 283 283 283 284 284 284 284 283 282 281
282 283 283 282 282 282 282 282 282 282 282 282 282 282 282 283 283 282 282 283 283 283 283 283 283 283 283 283 283 283 283 283 283 284 284 284 284 284
Wind_Speed
21 18 16 14 12 10 9 9 10 7 9 10 10 11 14 18 18 19 19 20 22 23 24 27 27 27 28 27 28 25 25 25 25 25 24 25 25 26
22 20 17 14 11 9 8 7 8 7 6 9 11 13 16 18 18 18 20 20 22 24 25 26 27 27 27 29 29 27 26 25 25 25 25 24 26 26
22 19 16 13 11 8 7 7 6 6 6 6 9 12 15 17 16 18 20 22 23 25 25 26 27 27 27 29 30 31 29 28 27 25 24 26 28 30
22 19 16 12 10 8 6 6 7 6 6 6 9 11 14 16 18 20 21 23 25 25 26 26 26 27 29 29 30 30 31 31 28 27 28 28 28 29
20 17 13 10 9 7 6 6 7 8 8 9 10 12 14 17 19 21 22 23 25 26 26 26 27 29 30 30 29 29 31 31 29 29 28 28 26 25
20 16 13 11 10 8 7 7 8 8 9 10 11 14 17 20 22 27 27 26 27 28 27 28 30 29 29 28 29 30 29 30 28 27 26 25 27 30
22 19 16 12 10 8 8 8 7 8 8 10 12 15 17 22 25 27 29 31 28 32 32 31 33 30 29 29 29 29 30 28 27 27 27 29 32 31
22 19 15 12 11 10 8 7 7 7 8 10 12 15 18 21 23 26 29 32 33 28 33 31 28 30 31 30 30 27 26 29 27 29 32 32 30 31
21 19 16 13 11 9 7 5 6 8 9 11 12 15 16 19 23 24 25 27 28 29 30 33 32 34 33 33 31 28 29 30 32 32 31 32 32 32
23 19 15 14 12 9 5 2 6 9 10 11 12 13 15 17 20 22 24 25 25 26 25 33 35 36 37 35 33 34 33 33 32 33 31 31 31 31
24 20 19 15 10 7 2 7 8 9 10 11 11 12 13 15 18 19 21 25 29 29 26 33 36 39 39 38 38 38 36 33 32 32 31 31 30 30
26 23 17 12 9 3 4 7 8 7 7 8 9 10 12 14 16 18 20 23 26 31 28 32 36 36 34 42 45 42 38 35 33 29 29 29 30 31
27 21 15 12 4 1 5 6 5 5 6 7 9 10 10 11 13 15 18 21 24 27 27 29 35 34 29 41 48 44 40 38 32 32 30 32 32 29
22 19 13 5 3 6 5 4 3 4 6 7 8 9 10 11 13 15 17 20 24 28 28 25 30 30 32 39 42 44 40 34 34 34 36 36 34 33
20 11 7 6 7 5 4 3 2 4 5 7 7 9 10 12 14 15 18 22 24 24 25 25 28 30 31 34 40 42 42 38 36 38 38 37 37 36
13 14 10 9 8 6 4 2 2 3 5 6 7 8 9 11 15 20 23 25 27 27 24 25 26 28 32 32 35 39 35 40 40 39 39 39 39 36
19 13 15 12 9 7 4 1 2 4 5 5 6 7 10 13 17 21 22 25 28 33 36 35 32 30 29 32 38 35 40 41 40 39 38 39 39 37
16 17 15 12 10 7 4 1 2 3 4 5 6 9 12 16 19 20 22 26 30 34 38 40 40 39 37 36 29 36 36 38 36 36 36 39 42 37
17 16 13 12 10 7 3 1 2 4 4 5 6 10 13 15 19 22 25 28 31 33 34 36 39 38 39 38 40 31 35 36 38 36 35 35 38 37
16 14 13 11 8 5 3 2 3 4 4 5 6 10 13 16 20 23 25 29 30 31 33 34 36 36 35 36 39 38 31 33 34 37 37 33 32 32
16 14 12 10 7 4 3 3 4 4 4 5 7 10 14 18 21 24 25 26 27 30 33 34 34 33 34 35 37 37 33 29 29 34 34 36 37 36
14 12 10 8 6 3 3 4 5 5 5 6 8 11 15 19 23 25 25 27 29 30 32 33 33 33 33 35 36 36 38 36 31 26 26 27 30 28
12 10 7 5 3 3 4 4 4 6 6 7 9 13 17 19 22 24 25 26 27 29 31 34 34 33 33 34 34 35 36 37 39 39 31 26 26 26
Wind_Direction
209 213 218 221 223 228 232 230 239 250 247 257 264 284 299 310 315 320 323 325 323 326 326 324 324 323 322 320 321 322 322 321 320 317 313 310 312 310
208 210 213 216 220 226 231 241 250 254 232 255 269 284 300 309 315 321 324 325 324 323 321 320 319 319 319 317 318 318 319 319 316 316 315 314 307 307
206 207 210 214 216 225 237 248 258 265 260 254 271 290 303 309 318 321 323 324 326 324 322 322 320 319 318 317 315 314 315 313 314 315 312 307 304 304
208 208 211 216 222 225 242 263 276 287 294 293 294 304 310 316 323 325 329 328 327 325 326 325 323 323 321 319 317 315 313 313 313 313 309 308 305 301
208 208 211 215 229 233 250 271 288 300 306 310 312 315 317 321 323 325 327 330 332 330 331 325 325 326 322 321 319 317 313 311 316 316 313 308 308 307
205 211 217 227 234 244 260 277 291 301 304 309 314 323 326 326 328 328 332 336 336 334 333 333 334 331 330 328 324 322 319 317 319 316 313 309 307 306
206 211 211 218 233 251 269 279 285 294 303 316 324 321 322 326 333 334 335 336 346 343 338 342 337 335 334 331 328 328 324 323 321 318 314 311 309 307
206 206 209 220 235 251 258 266 286 303 318 320 321 324 329 331 333 336 339 343 346 349 334 346 339 343 342 340 341 337 332 328 325 317 313 311 308 307
207 207 211 218 229 236 240 253 300 312 317 320 325 329 328 332 335 339 340 343 344 346 337 344 348 346 345 344 348 347 342 337 326 322 318 316 314 310
203 205 207 215 214 216 220 276 323 306 314 327 330 331 331 334 337 342 341 338 345 351 346 341 349 344 341 345 346 347 345 336 329 325 321 316 313 312
196 196 205 203 202 199 207 321 285 298 320 327 332 338 339 339 338 339 342 344 346 353 353 342 344 336 334 341 341 340 339 335 333 330 324 321 318 315
192 192 191 189 174 186 326 276 285 305 320 331 336 342 343 343 343 345 346 348 345 345 351 332 334 335 326 333 332 338 339 339 336 333 329 329 322 318
190 187 181 173 197 321 267 270 290 309 332 340 342 348 347 344 348 352 351 346 341 336 343 331 326 330 322 324 329 334 336 338 336 336 335 333 330 320
187 172 169 182 210 241 252 273 309 330 340 341 349 348 347 353 356 357 349 340 336 333 334 332 325 331 328 326 324 329 334 339 338 337 337 333 333 332
168 165 205 185 223 218 237 257 302 332 347 347 352 350 354 358 353 345 344 338 338 340 341 341 336 334 332 328 323 327 331 336 341 337 335 333 332 333
187 204 175 195 199 211 215 232 319 350 348 349 348 351 356 353 353 348 345 344 344 348 354 350 344 338 333 329 325 327 335 329 336 336 334 332 331 331
197 171 187 187 189 190 195 219 356 350 342 334 339 349 352 351 355 348 347 350 351 351 355 357 355 348 343 339 331 335 334 332 334 332 332 325 330 333
162 183 181 181 178 185 191 194 333 326 324 330 335 343 351 351 350 349 348 353 355 357 356 357 354 350 348 346 340 329 333 330 332 333 333 327 329 338
181 178 177 175 179 182 186 249 287 295 307 323 334 343 344 344 344 351 354 356 356 355 355 358 357 354 342 334 345 355 337 339 336 327 326 328 325 336
174 174 174 175 178 184 210 247 272 296 311 316 325 332 335 343 352 355 356 357 351 348 351 358 359 356 346 337 338 352 2 345 341 338 340 335 335 339
168 172 171 175 184 195 223 263 284 296 307 304 314 330 343 351 353 354 353 352 349 351 350 352 354 356 353 349 351 351 358 360 355 350 350 342 345 345
165 170 173 183 193 206 252 274 291 300 300 296 319 338 347 351 353 351 348 347 350 350 349 349 352 354 354 352 348 349 347 350 353 356 0 356 347 329
164 169 175 186 207 239 255 264 278 289 289 298 323 342 342 345 347 346 349 346 347 348 349 347 351 353 352 351 350 351 353 352 352 353 358 358 356 353